Location: Mount Kobau Star Party
(49.1167°N, 119.7333°W)
Time: 12:33:47
(UTC-07:00)

ARIANE 6 FM1 Upper Stage - Pass Details

Date: 12 April 2026
Orbit: 526 x 601 km, 62.0° (Epoch: 18 May)

Event Time Altitude Azimuth Distance (km) Brightness Sun altitude
Rises 01:54:45 0° 317° (NW) 2,678 6.5 -30.9°
Reaches altitude 10° 01:57:24 10° 334° (NNW) 1,779 5.7 -30.8°
Maximum altitude 02:00:27 21° 24° (NNE) 1,234 5.1 -30.6°
Drops below altitude 10° 02:03:30 10° 74° (ENE) 1,769 5.6 -30.5°
Sets 02:06:07 0° 91° (E) 2,658 6.3 -30.3°
